Terminal Aerodrome Forecast
Issued by NWS

Home | Current Version | Previous Version | Graphics & Text | Print | Product List | Glossary On
Versions: 1 2 3 4 5 6 7 8 9 10 11 12 13 14 15 16 17 18 19
000
FTUS43 KABR 220500
TAFPIR
TAF
KPIR 220525Z 2206/2306 13006KT P6SM SKC
     FM221200 13014KT P6SM SKC
     FM221600 14022G32KT P6SM BKN150=

USA.gov is the U.S. government's official web portal to all federal, state and local government web resources and services.